星链-2525 (STARLINK-2525 )

导读

STARLINK-2525是美国太空探索技术公司(SpaceX)星链互联网星座中的一颗卫星,于2021年5月9日发射入轨,属于Starlink Group 2组星链卫星。星链星座旨在为全球提供高速低延迟宽带互联网服务,这颗卫星承担着扩展星座覆盖范围、提升全球网络服务能力的任务,是SpaceX大规模星链组网部署中的组成单元。

Basic Information
目录编号:
48482
目录名称:
STARLINK-2525
国际标识:
2021-040BG
轨道中心:
EARTH
卫星名称:
星链-2525
卫星全名:
星链-2525 (STARLINK-2525 )
卫星状态:
在轨 (已飞行1944 天)
发射日期:
2021-05-09 UTC
国别 :
美国 (US)
星等 :
--
Orbit Information
数据来源 国际轨道数据 AOE轨道数据
星历时间 2026-09-03T21:03:38+0800
14小时前
查看轨道信息
2026-09-02T12:00:00+0800
1天前
查看轨道信息
半长轴 6848.887km 6848.903km
偏心率 0.0001154 0.0001437
轨道倾角 53.159° 53.157°
近地点辐角 73.492° 64.227°
升交点赤经 86.234° 92.648°
平近点角 286.621° 255.817°
近地点 469.959km 469.781km
远地点 471.541km 471.751km
周期 94.013分钟 94.014分钟
每日圈数 15.316968 15.316915
Detailed Information
固有亮度:
5
最大亮度:
2.5
卫星平台:
Starlink V1.0
覆盖范围:
全球
运营商:
太空探索技术公司
运营商所在国:
美国
制造商(研发单位):
太空探索技术公司
制造商所在国:
美国
使用方式:
暂无
Satellite Introduction
星链(Starlink)计划是由太空探索技术公司(SpaceX)提出的一个巨型低轨卫星互联网星座项目,计划在2019年至2024年间在太空搭建由约1.2万颗卫星组成的“星链”网络,其中1584颗将部署在地球上空550千米处的近地轨道,并从2020年开始工作。该卫星仍在工作。
2D Orbit Map
3D Orbit Map
Orbit Altitude Analysis Chart
Orbit Inclination Analysis Chart
Orbit Comprehensive Analysis Chart
View Comprehensive Chart
Conjunction Data List
Event ID Objects TCA Miss Dist (km) Collision Risk Probability Collision Risk Index (CRI) Action
CDM_260905-135404-848204-857321
2026-09-05T
13:54:17+0000
2.591 km
极远距离
1.042578E-6 低风险 0.35